Simultaneous Nadir Overpasses (SNOs) Predictions

Prediction of SNOs between GOES-15 and METOP-C Satellite Orbit:

Table of predicted SNOs for the next 14.0 days since TLE Epoch: 3/19/2022
Index Date Time (GOES-15) GOES-15 Lat,Lon METOP-C Lat,Lon Distance(km) Time Diff (sec)
1 03/20/2022 06:11:09 0.02,-128.12 -0.42,-130.20 236.12 80
2 03/21/2022 05:53:10 0.02,-128.15 0.68,-125.20 336.17 80
3 03/22/2022 18:09:23 -0.03,-128.21 0.31,-129.77 177.83 80
4 03/23/2022 17:51:23 -0.02,-128.23 -0.79,-124.78 393.85 80
5 03/25/2022 06:07:44 0.04,-128.25 -0.19,-129.38 128.59 80
6 03/26/2022 05:49:44 0.03,-128.27 0.91,-124.38 442.70 80
7 03/27/2022 18:05:58 -0.04,-128.32 0.08,-128.96 72.54 80
8 03/28/2022 17:47:58 -0.04,-128.33 -1.02,-123.96 498.81 80
9 03/30/2022 06:04:17 0.04,-128.34 -0.00,-128.55 23.61 80
10 04/01/2022 18:05:11 -0.05,-128.41 -0.11,-128.13 32.52 80
